Showing default

AUTCUBE 2, 43681

Orbit data source: Space-Track

AUTCUBE 2, 43681 is a payload satellite in SSO that was launched on Mon, 29 Oct 2018 UTC via an H-IIA 202 launch vehicle from the Tanegashima Space Center (TNSTA). Payload-class satellites include a variety of spacecraft equipped with specific instruments for various scientific and technological missions. These include communications satellites like Starlink; space stations such as the ISS; scientific satellites like the Hubble; Earth observation satellites from companies like Planet Labs, Umbra, and HawkEye 360; GPS; miniature CubeSats for education and research; and military/defense satellites.

Loading next visibility...
Identifier
43681, 2018-084K
Orbit
SSO
Last TLE update
8 hours ago
Origin
Manufacturer
AUT
Mission
Operational Amateur Technology
Bus & Motor
CUBESAT 1U, Unknown motor
Mass
1.6 kg wet, 1.6 kg dry
Launch date (UTC)
2018-10-29 (7 years ago)
Launch vehicle
H-IIA 202
Launch site
Tanegashima Space Center (TNSTA)
Object type
Payload
Rocket body
Debris
Shape & HBR
Box, 0.1 m
Radar Cross Section
0.015 m², Small (<0.1 m²)

Expand to show TLE details & history

TLE from 8 hours ago
0 AUTCUBE 2
1 43681U 18084K   25128.94872470  .00004670  00000-0  32476-3 0  9994
2 43681  98.0843 309.4386 0008870 335.4737  24.6065 15.06006948356000
Epoch: 2025-05-08T22:46Z
Definitive object data (Epoch: 2025-05-08T22:46:09.814Z)
Latitude
-0.00004°
Longitude
100.88582°
Altitude
545.881 km
Speed
7.592 km/s
True Right ascension
20h 37m 45s
True Declination
0° 00' 00"
Sunlit
Object was in daylight at TLE epoch
Visualization TLE readout
Latitude
-56.92768°
Longitude
113.75161°
Altitude
565.265 km
Speed
7.58 km/s
Apparent Right ascension
00h 26m 44s
Apparent Declination
-55° 18' 22"
Sunlit
Object is in daylight
Visualization observer readout
Local Sidereal Time
14:38:04
Azimuth
136.371° SSE
Elevation
-63.432°
Doppler factor
1
Orbital elements
Apogee altitude
551.572 km
Perigee altitude
539.29 km
Semi-major axis
6,923.568 km
Eccentricity
0.000887
Inclination
98.0843°
RAAN
309.4386°
Arg. of periapsis
335.4737°
True anomaly
24.64887°
Mean anomaly
24.6065°
Eccentric anomaly
24.62768°
Mean motion
3.76746 °/min
BSTAR
0.00032476
Orbital period
95.56 mins
Loading maneuver chart data...
Loading SW <> Apogee altitude chart data...

AUTCUBE 2 Visibility forecast

Observer location: undefined°, undefined°

Span
Click to sort rows by Start time (UTC) header in descending order
Start Az.
Max El. time (UTC)
Max El. Az.
Max El.
End time (UTC)
End Az.
7 mins2025-05-09 11:39:14.058Z146.084° SSE2025-05-09 11:42:14.058Z89.889° E36.396°2025-05-09 11:46:14.058Z358.943° N
6 mins2025-05-10 00:51:14.058Z15.873° NNE2025-05-10 00:54:14.058Z140.332° SSE44.511°2025-05-10 00:57:14.058Z190.086° SSW
|